When you browse on this site, cookies collect data to enhance your experience and personalize the content and advertising you see.
Visit our Privacy Policy to learn more. By continuing to use the site, you agree to this use of cookies and data.
  • In Austria
  • List of Countries
  • For 7 days
  • Water Temperature
  • Weather Map
  • News
  • Weather Widgets
  • user-avatar
    Login

    Hourly Weather San Francisco

    Today, 13 November, Wednesday

    Time Temperature Precipitation Wind Pressure Humidity
    00:00 +20°C° 2.4 mm 1 mps 636 mmHg 96%
    01:00 +20°C° 2.4 mm 1 mps 635 mmHg 96%
    02:00 +20°C° 0.7 mm 1 mps 635 mmHg 96%
    03:00 +17°C° 0.7 mm 0 mps 635 mmHg 96%
    04:00 +17°C° 0.7 mm 0 mps 635 mmHg 96%
    05:00 +18°C° 0.3 mm 0 mps 636 mmHg 95%
    06:00 +18°C° 0.3 mm 0 mps 636 mmHg 94%
    07:00 +18°C° 0 mm 0 mps 637 mmHg 95%
    08:00 +18°C° 0.6 mm 0 mps 638 mmHg 95%
    09:00 +19°C° 0.6 mm 0 mps 638 mmHg 94%
    10:00 +21°C° 0.6 mm 1 mps 638 mmHg 93%
    11:00 +22°C° 0.5 mm 1 mps 638 mmHg 89%
    12:00 +23°C° 0.5 mm 1 mps 637 mmHg 85%
    13:00 +24°C° 0.5 mm 2 mps 637 mmHg 81%
    14:00 +24°C° 0.7 mm 1 mps 636 mmHg 82%
    15:00 +23°C° 0.7 mm 1 mps 636 mmHg 83%
    16:00 +23°C° 0.7 mm 1 mps 635 mmHg 84%
    17:00 +22°C° 0.4 mm 1 mps 635 mmHg 88%
    18:00 +21°C° 0.4 mm 1 mps 635 mmHg 92%
    19:00 +20°C° 0.4 mm 1 mps 635 mmHg 96%
    20:00 +20°C° 0.8 mm 1 mps 636 mmHg 94%
    21:00 +19°C° 0.8 mm 1 mps 637 mmHg 93%
    22:00 +19°C° 0.8 mm 1 mps 637 mmHg 92%
    23:00 +19°C° 0.7 mm 1 mps 637 mmHg 92%

    Tomorrow, 14 November, Thursday

    Time Temperature Precipitation Wind Pressure Humidity
    00:00 +19°C° 0.7 mm 1 mps 636 mmHg 91%
    01:00 +19°C° 0.7 mm 1 mps 636 mmHg 91%
    02:00 +19°C° 0.3 mm 1 mps 636 mmHg 91%
    03:00 +18°C° 0.3 mm 1 mps 636 mmHg 91%
    04:00 +18°C° 0.3 mm 1 mps 636 mmHg 91%
    05:00 +19°C° 0 mm 1 mps 636 mmHg 90%
    06:00 +19°C° 0 mm 1 mps 637 mmHg 89%
    07:00 +18°C° 0 mm 0 mps 637 mmHg 87%
    08:00 +21°C° 0.1 mm 1 mps 638 mmHg 82%
    09:00 +23°C° 0.1 mm 1 mps 639 mmHg 77%
    10:00 +25°C° 0.1 mm 2 mps 640 mmHg 72%
    11:00 +24°C° 0.9 mm 2 mps 639 mmHg 79%
    12:00 +23°C° 0.9 mm 2 mps 638 mmHg 86%
    13:00 +23°C° 0.9 mm 2 mps 636 mmHg 93%
    14:00 +23°C° 0.7 mm 1 mps 636 mmHg 91%
    15:00 +23°C° 0.7 mm 1 mps 636 mmHg 90%
    16:00 +23°C° 0.7 mm 1 mps 636 mmHg 88%
    17:00 +22°C° 0.8 mm 1 mps 636 mmHg 91%
    18:00 +21°C° 0.8 mm 1 mps 636 mmHg 93%
    19:00 +20°C° 0.8 mm 1 mps 636 mmHg 96%
    20:00 +20°C° 0.6 mm 1 mps 637 mmHg 95%
    21:00 +19°C° 0.6 mm 1 mps 637 mmHg 95%
    22:00 +19°C° 0.6 mm 1 mps 637 mmHg 94%
    23:00 +19°C° 0.2 mm 1 mps 637 mmHg 94%

    Day after tomorrow, 15 November, Friday

    Time Temperature Precipitation Wind Pressure Humidity
    00:00 +19°C° 0.2 mm 1 mps 637 mmHg 94%
    01:00 +16°C° 0.2 mm 0 mps 636 mmHg 93%
    02:00 +16°C° 0 mm 0 mps 636 mmHg 94%
    03:00 +18°C° 0 mm 1 mps 636 mmHg 94%
    04:00 +18°C° 0 mm 1 mps 636 mmHg 94%
    05:00 +18°C° 0 mm 1 mps 637 mmHg 92%
    06:00 +17°C° 0 mm 0 mps 637 mmHg 90%
    07:00 +18°C° 0 mm 0 mps 638 mmHg 89%
    08:00 +21°C° 0.1 mm 1 mps 638 mmHg 83%
    09:00 +23°C° 0.1 mm 1 mps 639 mmHg 77%
    10:00 +25°C° 0.1 mm 2 mps 639 mmHg 72%
    11:00 +24°C° 0.8 mm 2 mps 638 mmHg 77%
    12:00 +24°C° 0.8 mm 2 mps 637 mmHg 82%
    13:00 +24°C° 0.8 mm 2 mps 636 mmHg 87%
    14:00 +24°C° 1 mm 2 mps 636 mmHg 88%
    15:00 +23°C° 1 mm 1 mps 635 mmHg 89%
    16:00 +23°C° 1 mm 1 mps 635 mmHg 90%
    17:00 +22°C° 0.6 mm 1 mps 635 mmHg 92%
    18:00 +21°C° 0.6 mm 1 mps 635 mmHg 94%
    19:00 +20°C° 0.6 mm 1 mps 636 mmHg 96%
    20:00 +19°C° 0.2 mm 1 mps 636 mmHg 95%
    21:00 +19°C° 0.2 mm 1 mps 636 mmHg 94%
    22:00 +19°C° 0.2 mm 1 mps 637 mmHg 93%
    23:00 +19°C° 0.1 mm 1 mps 636 mmHg 94%

    16 November, Saturday

    Time Temperature Precipitation Wind Pressure Humidity
    00:00 +19°C° 0.1 mm 1 mps 636 mmHg 95%
    01:00 +19°C° 0.1 mm 1 mps 636 mmHg 95%
    02:00 +19°C° 0.4 mm 1 mps 635 mmHg 96%
    03:00 +19°C° 0.4 mm 1 mps 635 mmHg 96%
    04:00 +17°C° 0.4 mm 0 mps 635 mmHg 96%
    05:00 +19°C° 0.1 mm 1 mps 636 mmHg 96%
    06:00 +19°C° 0.1 mm 1 mps 636 mmHg 95%
    07:00 +19°C° 0.1 mm 1 mps 636 mmHg 94%
    08:00 +21°C° 0 mm 1 mps 637 mmHg 86%
    09:00 +23°C° 0 mm 1 mps 638 mmHg 78%
    10:00 +25°C° 0 mm 2 mps 638 mmHg 70%
    11:00 +25°C° 0.5 mm 2 mps 637 mmHg 71%
    12:00 +25°C° 0.5 mm 2 mps 637 mmHg 73%
    13:00 +25°C° 0.5 mm 2 mps 636 mmHg 74%
    14:00 +25°C° 0.9 mm 2 mps 635 mmHg 79%
    15:00 +24°C° 0.9 mm 1 mps 635 mmHg 83%
    16:00 +23°C° 0.9 mm 1 mps 634 mmHg 88%
    17:00 +22°C° 0.6 mm 1 mps 634 mmHg 90%
    18:00 +21°C° 0.6 mm 1 mps 634 mmHg 93%
    19:00 +20°C° 0.6 mm 1 mps 634 mmHg 95%
    20:00 +19°C° 0.3 mm 1 mps 635 mmHg 94%
    21:00 +19°C° 0.3 mm 1 mps 635 mmHg 93%
    22:00 +18°C° 0.3 mm 1 mps 635 mmHg 92%
    23:00 +18°C° 0.1 mm 1 mps 635 mmHg 91%

    17 November, Sunday

    Time Temperature Precipitation Wind Pressure Humidity
    00:00 +18°C° 0.1 mm 1 mps 635 mmHg 91%
    01:00 +18°C° 0.1 mm 1 mps 634 mmHg 91%
    02:00 +16°C° 0.2 mm 0 mps 634 mmHg 91%
    03:00 +16°C° 0.2 mm 0 mps 634 mmHg 90%
    04:00 +16°C° 0.2 mm 0 mps 634 mmHg 90%
    05:00 +16°C° 0.2 mm 0 mps 635 mmHg 91%
    06:00 +17°C° 0.2 mm 0 mps 635 mmHg 91%
    07:00 +17°C° 0.2 mm 0 mps 636 mmHg 92%
    08:00 +18°C° 0.2 mm 0 mps 636 mmHg 88%
    09:00 +22°C° 0.2 mm 1 mps 637 mmHg 84%
    10:00 +23°C° 0.2 mm 1 mps 637 mmHg 80%
    11:00 +24°C° 0.5 mm 1 mps 637 mmHg 78%
    12:00 +25°C° 0.5 mm 2 mps 636 mmHg 76%
    13:00 +25°C° 0.5 mm 2 mps 635 mmHg 74%
    14:00 +25°C° 0.7 mm 2 mps 635 mmHg 79%
    15:00 +24°C° 0.7 mm 1 mps 634 mmHg 85%
    16:00 +23°C° 0.7 mm 1 mps 634 mmHg 90%
    17:00 +22°C° 0.9 mm 1 mps 634 mmHg 92%
    18:00 +21°C° 0.9 mm 1 mps 634 mmHg 94%
    19:00 +20°C° 0.9 mm 1 mps 634 mmHg 95%
    20:00 +19°C° 0.5 mm 1 mps 635 mmHg 95%
    21:00 +19°C° 0.5 mm 1 mps 635 mmHg 95%
    22:00 +19°C° 0.5 mm 1 mps 636 mmHg 95%
    23:00 +19°C° 0.1 mm 1 mps 635 mmHg 95%

    18 November, Monday

    Time Temperature Precipitation Wind Pressure Humidity
    00:00 +18°C° 0.1 mm 1 mps 635 mmHg 95%
    01:00 +18°C° 0.1 mm 1 mps 635 mmHg 95%
    02:00 +18°C° 0.1 mm 1 mps 635 mmHg 95%
    03:00 +18°C° 0.1 mm 1 mps 635 mmHg 96%
    04:00 +16°C° 0.1 mm 0 mps 634 mmHg 96%
    05:00 +16°C° 0 mm 0 mps 635 mmHg 95%
    06:00 +17°C° 0 mm 0 mps 636 mmHg 95%
    07:00 +17°C° 0 mm 0 mps 636 mmHg 94%
    08:00 +21°C° 0.1 mm 1 mps 637 mmHg 89%
    09:00 +22°C° 0.1 mm 1 mps 637 mmHg 85%
    10:00 +23°C° 0.1 mm 1 mps 637 mmHg 81%
    11:00 +24°C° 0.4 mm 1 mps 637 mmHg 80%
    12:00 +24°C° 0.4 mm 2 mps 636 mmHg 79%
    13:00 +24°C° 0.4 mm 2 mps 636 mmHg 79%
    14:00 +24°C° 0.5 mm 2 mps 635 mmHg 82%
    15:00 +23°C° 0.5 mm 1 mps 635 mmHg 85%
    16:00 +23°C° 0.5 mm 1 mps 634 mmHg 89%
    17:00 +22°C° 0.4 mm 1 mps 634 mmHg 91%
    18:00 +21°C° 0.4 mm 1 mps 635 mmHg 93%
    19:00 +19°C° 0.4 mm 1 mps 635 mmHg 96%
    20:00 +19°C° 0.3 mm 1 mps 635 mmHg 95%
    21:00 +19°C° 0.3 mm 1 mps 635 mmHg 95%
    22:00 +18°C° 0.3 mm 1 mps 636 mmHg 94%
    23:00 +18°C° 0.1 mm 1 mps 635 mmHg 94%
    Show more